FW5926 Weather Reports


Display with metric or nautical units.
time (UTC)temp
F
wind
direction
speed
MPH
gust
MPH
rain 1hr
in
rain 24hr
in
rain mn
in
humidity
%
barometer
mb
20260504141104 59 204 3.0 9.0 0.00 0.00 0.00 67 1005.0
20260504140604 59 271 3.0 10.0 0.00 0.00 0.00 68 1005.1
20260504140105 58 272 3.0 8.0 0.00 0.00 0.00 69 1005.2
20260504130604 54 260 5.0 9.0 0.00 0.00 0.00 74 1005.8
20260504130104 54 265 5.0 9.0 0.00 0.00 0.00 74 1005.8
20260504120104 50 181 3.0 9.0 0.00 0.00 0.00 79 1006.1
20260504110604 48 249 1.0 6.0 0.00 0.00 0.00 80 1005.9
20260504110105 48 185 1.0 3.0 0.00 0.00 0.00 80 1005.9
20260504100604 47 242 1.0 6.0 0.00 0.00 0.00 80 1005.8
20260504100104 47 237 2.0 6.0 0.00 0.00 0.00 80 1005.8
20260504090105 48 229 1.0 3.0 0.00 0.00 0.00 79 1005.8
20260504081603 48 175 2.0 5.0 0.00 0.00 0.00 78 1006.3
20260504081104 48 225 2.0 5.0 0.00 0.00 0.00 77 1006.4
20260504080105 48 207 3.0 6.0 0.00 0.00 0.00 77 1006.5
20260504070104 49 218 1.0 3.0 0.00 0.00 0.00 74 1007.3
20260504060105 49 179 2.0 5.0 0.00 0.00 0.00 74 1007.9
20260504050604 50 177 3.0 5.0 0.00 0.00 0.00 72 1008.6
20260504050104 50 175 2.0 6.0 0.00 0.00 0.00 72 1008.7
20260504045605 50 173 2.0 5.0 0.00 0.00 0.00 71 1008.7
20260504045105 50 329 2.0 5.0 0.00 0.00 0.00 71 1008.7
20260504044604 51 175 2.0 6.0 0.00 0.00 0.00 71 1008.8
20260504043605 51 263 2.0 6.0 0.00 0.00 0.00 70 1008.7
20260504043104 51 201 3.0 5.0 0.00 0.00 0.00 70 1008.8
20260504042604 51 175 2.0 5.0 0.00 0.00 0.00 70 1008.8
20260504042104 51 188 2.0 5.0 0.00 0.00 0.00 70 1008.9
20260504041604 51 185 2.0 3.0 0.00 0.00 0.00 70 1008.9
20260504041104 51 193 2.0 6.0 0.00 0.00 0.00 70 1008.9
20260504040604 51 185 2.0 7.0 0.00 0.00 0.00 70 1009.0
20260504040105 51 236 2.0 5.0 0.00 0.00 0.00 70 1009.0
20260504035604 51 172 2.0 5.0 0.00 0.00 0.00 70 1009.1
20260504034604 51 244 2.0 5.0 0.00 0.00 0.00 69 1009.3
20260504034106 51 315 2.0 9.0 0.00 0.00 0.00 69 1009.3
20260504033604 51 168 3.0 9.0 0.00 0.00 0.00 69 1009.4
20260504032604 51 234 2.0 6.0 0.00 0.00 0.00 69 1009.5
20260504032104 51 27 1.0 6.0 0.00 0.00 0.00 69 1009.5
20260504031604 51 167 2.0 7.0 0.00 0.00 0.00 69 1009.5
20260504031104 51 160 2.0 3.0 0.00 0.00 0.00 69 1009.6
20260504030604 51 210 2.0 5.0 0.00 0.00 0.00 70 1009.6
20260504030105 51 132 2.0 5.0 0.00 0.00 0.00 70 1009.6
20260504025604 51 181 2.0 6.0 0.00 0.00 0.00 70 1009.6
20260504025104 51 183 3.0 7.0 0.00 0.00 0.00 70 1009.7
20260504024603 51 156 3.0 12.0 0.00 0.00 0.00 70 1009.8
20260504024104 51 287 3.0 8.0 0.00 0.00 0.00 70 1009.8
20260504023604 51 215 2.0 5.0 0.00 0.00 0.00 70 1009.8
20260504023104 51 176 3.0 7.0 0.00 0.00 0.00 70 1009.8
20260504022604 51 186 3.0 7.0 0.00 0.00 0.00 70 1009.8
20260504022104 51 175 2.0 5.0 0.00 0.00 0.00 71 1009.8
20260504021604 51 188 3.0 9.0 0.00 0.00 0.00 71 1009.9
20260504021104 51 242 1.0 5.0 0.00 0.00 0.00 71 1009.9
20260504020604 51 223 2.0 3.0 0.00 0.00 0.00 71 1009.8
20260504020105 51 168 2.0 8.0 0.00 0.00 0.00 71 1010.0
20260504015604 51 183 3.0 6.0 0.00 0.00 0.00 71 1009.9
20260504015104 51 174 2.0 3.0 0.00 0.00 0.00 71 1010.0
20260504014604 51 191 2.0 5.0 0.00 0.00 0.00 71 1009.9
20260504014104 51 193 1.0 3.0 0.00 0.00 0.00 71 1009.9
20260504013104 51 167 2.0 7.0 0.00 0.00 0.00 71 1009.9
20260504012604 51 252 2.0 5.0 0.00 0.00 0.00 71 1009.9
20260504012104 51 210 2.0 3.0 0.00 0.00 0.00 70 1010.0
20260504011604 52 198 2.0 5.0 0.00 0.00 0.00 70 1010.0
20260504011104 52 260 2.0 3.0 0.00 0.00 0.00 70 1010.0
20260504010604 52 189 2.0 5.0 0.00 0.00 0.00 69 1010.0
20260504010105 52 141 2.0 7.0 0.00 0.00 0.00 69 1010.0
20260504005604 52 203 1.0 3.0 0.00 0.00 0.00 69 1010.0
20260504005104 52 169 2.0 6.0 0.00 0.00 0.00 69 1010.1
20260504004604 52 195 2.0 6.0 0.00 0.00 0.00 68 1010.2
20260504004104 53 212 2.0 5.0 0.00 0.00 0.00 68 1010.1
20260504003604 53 182 1.0 6.0 0.00 0.00 0.00 67 1010.3
20260504003104 53 168 2.0 5.0 0.00 0.00 0.00 67 1010.2
20260504002604 53 170 1.0 3.0 0.00 0.00 0.00 67 1010.3
20260504002104 53 159 2.0 6.0 0.00 0.00 0.00 66 1010.3
20260504001105 54 236 1.0 5.0 0.00 0.00 0.00 66 1010.4
20260504000604 54 171 1.0 5.0 0.00 0.00 0.00 66 1010.4
20260504000105 54 181 2.0 7.0 0.00 0.00 0.00 66 1010.4
20260503235604 54 217 2.0 6.0 0.00 0.00 0.00 65 1010.3
20260503234605 54 196 2.0 6.0 0.00 0.00 0.00 65 1010.5
20260503234104 54 168 2.0 8.0 0.00 0.00 0.00 65 1010.6
20260503233604 54 296 2.0 3.0 0.00 0.00 0.00 65 1010.7
20260503233104 54 341 5.0 12.0 0.00 0.00 0.00 64 1010.7
20260503232604 54 255 6.0 12.0 0.00 0.00 0.00 64 1010.8
20260503231604 54 231 5.0 12.0 0.00 0.00 0.00 62 1010.9
20260503231103 54 277 9.0 15.0 0.00 0.00 0.00 62 1010.9
20260503230604 54 267 6.0 14.0 0.00 0.00 0.00 61 1011.0
20260503230105 55 270 9.0 20.0 0.00 0.00 0.00 60 1011.0
20260503225604 55 266 7.0 16.0 0.00 0.00 0.00 60 1011.0
20260503225104 55 271 9.0 15.0 0.00 0.00 0.00 61 1011.0
20260503224603 56 266 10.0 16.0 0.00 0.00 0.00 60 1011.0
20260503224104 56 266 7.0 17.0 0.00 0.00 0.00 59 1010.9
20260503223104 57 263 13.0 23.0 0.00 0.00 0.00 57 1010.9
20260503222604 58 267 9.0 16.0 0.00 0.00 0.00 56 1010.9
20260503222104 59 272 9.0 21.0 0.00 0.00 0.00 54 1010.9
20260503221604 60 280 12.0 21.0 0.00 0.00 0.00 54 1010.7
20260503220604 60 257 7.0 16.0 0.00 0.00 0.00 48 1010.4
20260503220105 61 265 12.0 21.0 0.00 0.00 0.00 46 1010.4
20260503215604 61 250 8.0 14.0 0.00 0.00 0.00 46 1010.4
20260503215104 61 250 7.0 15.0 0.00 0.00 0.00 45 1010.5
20260503214604 61 184 11.0 21.0 0.00 0.00 0.00 45 1010.6
20260503213604 61 264 6.0 12.0 0.00 0.00 0.00 46 1010.5
20260503213103 61 266 8.0 16.0 0.00 0.00 0.00 46 1010.5
20260503212604 61 248 9.0 14.0 0.00 0.00 0.00 46 1010.5
20260503212104 61 212 6.0 17.0 0.00 0.00 0.00 46 1010.5
20260503211104 61 275 7.0 16.0 0.00 0.00 0.00 45 1010.5
20260503210604 61 254 6.0 12.0 0.00 0.00 0.00 45 1010.6
20260503205604 62 247 9.0 16.0 0.00 0.00 0.00 44 1010.5
20260503205104 62 263 7.0 18.0 0.00 0.00 0.00 45 1010.6
20260503204603 62 257 12.0 24.0 0.00 0.00 0.00 44 1010.6
20260503204104 62 236 10.0 20.0 0.00 0.00 0.00 44 1010.6
20260503202104 62 244 4.0 10.0 0.00 0.00 0.00 45 1010.6
20260503201604 61 266 11.0 22.0 0.00 0.00 0.00 43 1010.8
20260503201104 62 276 8.0 20.0 0.00 0.00 0.00 44 1010.9
20260503200605 62 231 5.0 12.0 0.00 0.00 0.00 44 1010.9
20260503200105 62 261 9.0 20.0 0.00 0.00 0.00 43 1010.9
20260503195604 62 270 7.0 16.0 0.00 0.00 0.00 43 1011.0
20260503195104 62 285 5.0 16.0 0.00 0.00 0.00 44 1011.0
20260503194603 62 264 6.0 14.0 0.00 0.00 0.00 43 1011.2
20260503194104 62 217 6.0 12.0 0.00 0.00 0.00 43 1011.1
20260503193104 62 238 12.0 22.0 0.00 0.00 0.00 42 1011.3
20260503192604 62 263 9.0 17.0 0.00 0.00 0.00 42 1011.4
20260503191604 62 194 5.0 13.0 0.00 0.00 0.00 44 1011.5
20260503191103 61 170 5.0 14.0 0.00 0.00 0.00 45 1011.5
20260503190604 61 281 9.0 18.0 0.00 0.00 0.00 44 1011.6
20260503185604 61 255 10.0 20.0 0.00 0.00 0.00 44 1011.8
20260503184604 61 274 9.0 18.0 0.00 0.00 0.00 44 1011.8
20260503184104 61 200 10.0 18.0 0.00 0.00 0.00 42 1011.9
20260503183604 61 163 7.0 17.0 0.00 0.00 0.00 44 1011.9
20260503183103 61 272 7.0 20.0 0.00 0.00 0.00 44 1012.1
20260503182605 61 267 10.0 20.0 0.00 0.00 0.00 43 1012.2
20260503182103 60 277 12.0 18.0 0.00 0.00 0.00 44 1012.2
20260503181604 60 264 8.0 16.0 0.00 0.00 0.00 46 1012.2
20260503181104 60 276 9.0 20.0 0.00 0.00 0.00 44 1012.4
20260503180604 60 248 7.0 13.0 0.00 0.00 0.00 44 1012.5
20260503180106 60 269 12.0 17.0 0.00 0.00 0.00 43 1012.5
20260503175604 60 279 11.0 17.0 0.00 0.00 0.00 44 1012.6
20260503175103 60 278 10.0 20.0 0.00 0.00 0.00 44 1012.7
20260503174104 60 257 8.0 21.0 0.00 0.00 0.00 44 1012.8
20260503173604 60 224 7.0 20.0 0.00 0.00 0.00 44 1012.9
20260503172604 59 258 7.0 21.0 0.00 0.00 0.00 43 1013.0
20260503171604 59 269 10.0 20.0 0.00 0.00 0.00 46 1013.2
20260503171103 58 263 5.0 13.0 0.00 0.00 0.00 46 1013.3
20260503170603 59 257 7.0 16.0 0.00 0.00 0.00 45 1013.4
20260503170106 59 239 6.0 15.0 0.00 0.00 0.00 46 1013.4
20260503160106 55 271 5.0 13.0 0.00 0.00 0.00 51 1014.1
20260503150604 54 259 9.0 15.0 0.00 0.00 0.00 50 1014.4